Location: Moena
(46.3667°N, 11.6500°E)
Time: 08:06:41
(UTC+00:00)

GP-B - Pass Details

Date: 24 June 2021
Orbit: 631 x 635 km, 89.8° (Epoch: 28 July)

Event Time Altitude Azimuth Distance (km) Brightness Sun altitude
Rises 23:07:13 0° 358° (N) 2,943 8.2 -20.2°
Reaches altitude 10° 23:09:28 10° 356° (N) 2,029 6.9 -20.2°
Maximum altitude 23:13:53 64° 275° (W) 703 3.3 -20.2°
Enters shadow 23:15:03 45° 215° (SW) 866 3.4 -20.2°
